Regional Weather Roundup
Issued by NWS

Home | Current Version | Previous Version | Text Only | Print | Product List | Glossary On
Versions: 1 2 3 4 5 6 7 8 9 10 11 12 13 14 15 16 17 18 19 20 21 22 23 24 25 26 27 28 29 30 31 32 33 34 35 36 37 38 39 40 41 42 43 44 45 46 47 48 49 50
000
ASUS43 KFSD 300902
RWRSD

WEATHER ROUNDUP FOR SOUTH DAKOTA
NATIONAL WEATHER SERVICE SIOUX FALLS SD
400 AM CDT SAT AUG 30 2014

NOTE: "FAIR" INDICATES FEW OR NO CLOUDS BELOW 12,000 FEET WITH NO
SIGNIFICANT WEATHER AND/OR OBSTRUCTIONS TO VISIBILITY.


SDZ001>005-009-010-012>017-301000-
NORTHWEST AND NORTH CENTRAL SOUTH DAKOTA

CITY           SKY/WX    TMP DP  RH WIND       PRES   REMARKS
BUFFALO          N/A     53  51  93 SE9       29.91F
FAITH            N/A     55  54  96 SE9       29.98F
MOBRIDGE       CLEAR     51  51 100 N6        29.97R
$$

SDZ012>016-024>037-041>051-057-063-072>074-301000-
SOUTHWEST AND SOUTH CENTRAL SOUTH DAKOTA

CITY           SKY/WX    TMP DP  RH WIND       PRES   REMARKS
RAPID CTY ARPT CLEAR     50  48  93 CALM      30.00F
PIERRE         CLEAR     54  53  97 N6        29.96F
CUSTER         PTCLDY    48  46  93 W3        30.09F
ELLSWORTH AFB  CLEAR     57  53  88 SW3       29.99F
PHILIP         CLEAR     53  51  93 CALM      29.99S
PINE RIDGE     CLEAR     49  48  97 CALM      30.01S
WINNER         FAIR      56  54  93 W6        29.98S FOG
$$

SDZ004>011-016>023-039-040-301000-
NORTHEAST SOUTH DAKOTA

CITY           SKY/WX    TMP DP  RH WIND       PRES   REMARKS
ABERDEEN       CLOUDY    59  56  89 N12       29.93S
WATERTOWN      CLOUDY    60  58  92 N9        29.89R
SISSETON         N/A     60  59  96 N10       29.88R
$$

SDZ017-020-022-023-036>040-048>070-301000-
SOUTHEAST SOUTH DAKOTA

CITY           SKY/WX    TMP DP  RH WIND       PRES   REMARKS
SIOUX FALLS    CLOUDY    66  64  93 NW12      29.87S
HURON          CLOUDY    61  58  90 N12       29.92R
CHAMBERLAIN    CLEAR     57  56  94 N3        29.96S
MITCHELL       CLOUDY    60  59  96 NW8       29.93S
YANKTON        CLOUDY    63  61  94 MISG      29.91R
$$

ABBREVIATIONS USED IN REMARKS
   TC - TEMPERATURE IN CELSIUS
  WCI - WIND CHILL INDEX
   HX - HEAT INDEX
  VSB - VISIBILITY



USA.gov is the U.S. government's official web portal to all federal, state and local government web resources and services.